�N����,����,�~����,�C��,���x,�C��,����,���ϕ���,�ő�u�ԕ���,�ő厞����,���˗�,�I�_���x,�n�����x,�ő啗���N��,DTYPE
"16/06/28","00:10",1.2,19.4,94.8,1006.0,298.4,0.5,1.6,336.6,0.00,18.6,22.4,"00:03:12",1
"16/06/28","00:20",1.2,19.3,94.6,1006.0,97.7,0.3,1.1,113.4,0.00,18.5,22.6,"00:12:56",1
"16/06/28","00:30",1.4,19.2,94.7,1006.2,278.3,0.5,0.9,123.9,0.00,18.4,22.5,"00:20:40",1
"16/06/28","00:40",1.0,19.0,94.6,1005.7,328.6,0.5,2.1,17.2,0.00,18.2,22.4,"00:38:16",1
"16/06/28","00:50",0.4,19.1,94.9,1005.5,189.4,0.2,0.8,198.3,0.00,18.3,22.5,"00:46:56",1
"16/06/28","01:00",0.4,19.1,94.8,1005.2,204.1,0.6,1.2,185.2,0.00,18.3,22.3,"00:54:24",1
"16/06/28","01:10",0.4,19.0,94.8,1005.5,205.9,0.5,1.2,199.4,0.00,18.2,22.5,"01:04:48",1
"16/06/28","01:20",0.6,19.0,94.9,1005.2,299.1,0.2,0.9,318.0,0.00,18.2,22.4,"01:10:56",1
"16/06/28","01:30",0.4,19.0,94.9,1005.0,280.6,0.5,0.9,233.8,0.00,18.2,22.0,"01:29:36",1
"16/06/28","01:40",0.4,19.0,95.0,1005.0,274.6,0.5,1.0,238.3,0.00,18.2,22.3,"01:30:32",1
"16/06/28","01:50",0.8,19.0,95.2,1004.8,307.1,0.5,0.9,356.3,0.00,18.3,22.2,"01:40:56",1
"16/06/28","02:00",0.4,19.0,95.2,1005.0,303.9,0.3,0.8,260.6,0.00,18.3,22.2,"01:54:24",1
"16/06/28","02:10",0.2,18.9,95.4,1004.5,277.0,0.3,1.6,229.0,0.00,18.2,22.2,"02:02:56",1
"16/06/28","02:20",0.2,18.9,95.3,1004.3,274.5,0.5,1.4,237.8,0.00,18.2,22.2,"02:19:36",1
"16/06/28","02:30",0.0,18.8,95.3,1004.3,274.3,0.7,1.1,316.0,0.00,18.1,22.2,"02:22:48",1
"16/06/28","02:40",0.2,18.7,95.1,1004.5,288.4,0.6,1.4,309.0,0.00,17.9,22.2,"02:36:24",1
"16/06/28","02:50",0.0,18.8,95.3,1004.3,275.6,0.7,1.3,239.5,0.00,18.1,22.1,"02:49:36",1
"16/06/28","03:00",0.2,18.7,95.3,1004.1,259.4,0.8,2.0,228.6,0.00,18.0,22.0,"02:52:40",1
"16/06/28","03:10",0.2,18.7,95.3,1004.3,300.9,0.6,1.1,316.5,0.00,18.0,22.2,"03:01:52",1
"16/06/28","03:20",0.2,18.7,95.4,1004.1,283.6,0.6,1.0,331.7,0.00,18.0,22.1,"03:17:44",1
"16/06/28","03:30",0.6,18.7,95.5,1003.8,285.7,0.6,1.3,239.7,0.00,18.0,22.3,"03:20:56",1
"16/06/28","03:40",0.0,18.7,95.7,1003.8,263.8,0.6,1.3,240.3,0.00,18.0,22.0,"03:32:48",1
"16/06/28","03:50",0.2,18.7,95.7,1003.8,277.0,0.6,1.0,255.6,0.00,18.0,21.7,"03:43:44",1
"16/06/28","04:00",0.0,18.7,95.8,1003.6,285.2,0.5,1.0,244.7,0.00,18.1,22.0,"03:57:12",1
"16/06/28","04:10",0.2,18.7,95.8,1003.6,293.9,0.5,1.3,232.6,0.00,18.1,21.9,"04:02:32",1
"16/06/28","04:20",0.0,18.8,95.9,1003.8,294.2,0.6,0.8,273.0,0.00,18.2,22.1,"04:10:08",1
"16/06/28","04:30",0.2,18.8,96.0,1003.8,303.1,0.6,0.8,310.2,0.00,18.2,22.1,"04:25:52",1
"16/06/28","04:40",0.2,18.8,96.0,1004.1,295.8,0.6,0.9,306.3,0.00,18.2,21.9,"04:38:48",1
"16/06/28","04:50",0.4,18.9,96.0,1004.1,283.6,0.7,0.9,300.0,0.00,18.3,21.9,"04:40:24",1
"16/06/28","05:00",0.2,18.8,96.1,1004.1,288.2,0.7,1.3,343.1,0.00,18.2,21.8,"04:50:56",1
"16/06/28","05:10",0.4,18.9,96.2,1004.3,292.5,0.6,0.8,294.5,0.00,18.3,21.8,"05:00:48",1
"16/06/28","05:20",0.2,18.9,96.3,1004.3,287.6,0.5,0.8,304.9,0.00,18.3,21.8,"05:15:44",1
"16/06/28","05:30",0.0,19.0,96.3,1004.1,281.3,0.5,0.9,315.6,0.00,18.4,21.9,"05:24:16",1
"16/06/28","05:40",0.4,19.0,96.3,1004.5,296.0,0.6,0.9,320.1,0.00,18.4,21.7,"05:37:28",1
"16/06/28","05:50",0.2,19.1,96.4,1004.5,323.4,0.6,1.0,316.8,0.00,18.6,21.9,"05:41:20",1
"16/06/28","06:00",0.0,19.2,96.4,1004.5,315.3,0.6,1.2,323.5,0.00,18.7,21.8,"05:56:40",1
"16/06/28","06:10",0.2,19.2,96.3,1004.8,310.3,0.6,1.1,339.2,0.00,18.6,21.8,"06:04:24",1
"16/06/28","06:20",0.2,19.2,96.3,1004.5,332.9,0.5,1.1,336.7,0.00,18.6,21.8,"06:14:48",1
"16/06/28","06:30",0.0,19.4,96.3,1004.5,335.2,0.3,1.0,354.5,0.01,18.8,21.6,"06:26:40",1
"16/06/28","06:40",0.2,19.5,96.2,1004.5,339.6,0.5,1.0,342.3,0.01,18.9,21.7,"06:30:24",1
"16/06/28","06:50",0.0,19.5,96.0,1004.3,234.0,0.1,0.6,348.8,0.02,18.9,21.7,"06:49:04",1
"16/06/28","07:00",0.0,19.6,95.8,1004.5,281.6,0.2,0.6,337.3,0.01,19.0,21.9,"06:50:16",1
"16/06/28","07:10",0.0,19.7,95.4,1004.8,307.4,0.3,0.9,347.0,0.02,19.0,21.7,"07:00:02",1
"16/06/28","07:20",0.0,19.8,95.2,1004.5,201.1,0.2,0.8,204.4,0.03,19.0,21.7,"07:14:00",1
"16/06/28","07:30",0.0,20.1,94.9,1004.8,159.3,0.2,0.6,134.2,0.05,19.3,21.7,"07:20:48",1
"16/06/28","07:40",0.0,20.3,94.5,1005.0,330.3,0.5,1.3,345.6,0.04,19.4,21.8,"07:38:48",1
"16/06/28","07:50",0.0,20.2,93.9,1005.0,322.6,0.6,1.6,7.0,0.03,19.2,21.8,"07:49:20",1
"16/06/28","08:00",0.0,20.4,93.7,1005.0,331.1,0.6,1.8,356.6,0.05,19.4,21.8,"07:51:28",1
"16/06/28","08:10",0.0,20.6,93.2,1005.0,322.2,0.5,1.3,334.6,0.05,19.5,22.0,"08:04:08",1
"16/06/28","08:20",0.0,20.7,93.2,1005.0,277.8,0.2,0.6,312.4,0.04,19.6,21.8,"08:12:00",1
"16/06/28","08:30",0.0,20.7,92.6,1005.2,222.2,0.3,1.1,235.6,0.05,19.5,21.8,"08:21:44",1
"16/06/28","08:40",0.0,20.9,92.8,1005.0,235.7,0.3,1.4,231.8,0.05,19.7,22.0,"08:32:32",1
"16/06/28","08:50",0.0,21.0,92.5,1004.8,281.9,0.3,0.9,354.3,0.06,19.8,22.1,"08:42:48",1
"16/06/28","09:00",0.0,21.0,90.9,1005.2,215.2,0.5,1.7,231.6,0.06,19.5,22.1,"08:59:28",1
"16/06/28","09:10",0.0,21.1,90.7,1005.2,223.0,0.6,1.2,204.7,0.07,19.6,22.0,"09:04:24",1
"16/06/28","09:20",0.0,21.0,90.0,1005.0,221.2,0.5,1.2,138.3,0.06,19.3,21.9,"09:14:16",1
"16/06/28","09:30",0.0,21.0,89.7,1005.5,343.6,0.5,1.3,30.7,0.03,19.3,22.1,"09:27:20",1
"16/06/28","09:40",0.0,20.8,90.7,1005.5,5.9,0.5,1.3,12.2,0.03,19.3,22.1,"09:31:04",1
"16/06/28","09:50",0.0,20.6,91.4,1006.0,1.4,0.3,1.0,0.5,0.03,19.2,22.1,"09:40:32",1
"16/06/28","10:00",0.0,20.5,91.5,1005.7,17.6,0.3,1.1,352.2,0.05,19.1,22.2,"09:54:00",1
"16/06/28","10:10",0.0,20.8,92.5,1005.5,8.3,0.5,1.0,349.2,0.10,19.6,22.0,"10:06:16",1
"16/06/28","10:20",0.0,21.1,93.2,1005.7,345.9,0.3,1.0,314.3,0.15,20.0,22.1,"10:15:52",1
"16/06/28","10:30",0.0,21.2,92.1,1005.5,263.8,0.3,1.0,127.7,0.10,19.9,22.3,"10:21:36",1
"16/06/28","10:40",0.0,21.0,90.9,1005.5,354.9,0.5,1.2,350.2,0.11,19.5,22.3,"10:31:04",1
"16/06/28","10:50",0.0,21.2,91.3,1005.5,349.2,0.7,2.0,354.1,0.12,19.8,22.1,"10:42:56",1
"16/06/28","11:00",0.0,21.4,90.0,1005.5,351.4,0.6,1.4,353.5,0.07,19.7,22.4,"10:54:56",1
"16/06/28","11:10",0.0,21.5,89.4,1005.2,344.5,0.6,1.6,343.1,0.09,19.7,22.3,"11:08:00",1
"16/06/28","11:20",0.0,21.6,90.3,1005.2,77.3,0.3,1.1,348.9,0.12,20.0,22.6,"11:10:48",1
"16/06/28","11:30",0.0,21.7,90.4,1005.0,289.8,0.3,1.3,239.8,0.10,20.1,22.6,"11:28:16",1
"16/06/28","11:40",0.0,21.8,88.8,1004.8,146.4,0.3,1.0,129.7,0.10,19.9,22.5,"11:32:00",1
"16/06/28","11:50",0.0,21.7,88.2,1005.0,358.5,1.0,2.0,335.1,0.11,19.7,22.6,"11:41:36",1
"16/06/28","12:00",0.0,22.3,88.3,1005.5,286.5,0.3,0.6,246.8,0.10,20.3,22.7,"11:55:36",1
"16/06/28","12:10",0.0,22.0,88.2,1005.2,346.2,1.2,2.4,345.4,0.10,20.0,22.9,"12:07:28",1
"16/06/28","12:20",0.0,22.4,87.6,1005.5,332.0,0.8,1.8,341.8,0.12,20.3,22.8,"12:12:16",1
"16/06/28","12:30",0.0,22.6,85.6,1005.0,342.7,1.1,2.7,341.3,0.15,20.1,22.9,"12:21:28",1
"16/06/28","12:40",0.0,23.0,83.8,1005.2,335.1,0.8,1.6,332.3,0.18,20.2,22.8,"12:36:48",1
"16/06/28","12:50",0.0,23.5,83.0,1005.0,345.3,0.7,1.8,342.0,0.18,20.5,23.0,"12:46:48",1
"16/06/28","13:00",0.0,23.5,82.5,1005.2,328.5,0.6,1.3,328.1,0.16,20.4,22.9,"12:54:48",1
"16/06/28","13:10",0.0,23.6,82.8,1005.5,340.9,1.1,2.4,338.6,0.17,20.5,23.1,"13:03:04",1
"16/06/28","13:20",0.0,24.4,79.7,1005.2,353.4,1.2,2.6,327.8,0.34,20.7,23.2,"13:14:24",1
"16/06/28","13:30",0.0,24.6,76.3,1005.0,20.2,0.5,2.5,350.7,0.30,20.2,23.4,"13:27:44",1
"16/06/28","13:40",0.0,24.7,76.6,1004.1,64.7,0.5,1.2,53.1,0.25,20.4,23.3,"13:32:24",1
"16/06/28","13:50",0.0,24.7,79.5,1004.3,250.0,0.3,1.2,205.0,0.12,21.0,23.3,"13:48:40",1
"16/06/28","14:00",0.0,24.8,79.9,1004.3,223.2,1.2,2.8,228.9,0.19,21.1,23.3,"13:55:52",1
"16/06/28","14:10",0.0,25.9,71.2,1004.3,205.4,1.1,2.9,227.1,0.51,20.3,23.7,"14:09:20",1
"16/06/28","14:20",0.0,25.7,74.0,1003.4,211.8,1.1,2.5,237.1,0.30,20.8,23.9,"14:10:40",1
"16/06/28","14:30",0.0,25.4,74.6,1004.1,198.7,1.3,3.4,213.3,0.19,20.6,24.0,"14:25:28",1
"16/06/28","14:40",0.0,24.9,77.3,1004.1,352.0,1.5,3.4,343.1,0.14,20.7,24.3,"14:34:08",1
"16/06/28","14:50",0.0,25.2,74.9,1004.1,350.9,1.1,2.8,34.3,0.18,20.5,24.0,"14:45:52",1
"16/06/28","15:00",0.0,25.6,73.4,1004.1,357.2,1.8,4.7,19.6,0.30,20.5,24.1,"14:58:48",1
"16/06/28","15:10",0.0,25.5,70.4,1003.8,345.7,2.1,4.2,336.8,0.32,19.8,24.2,"15:02:08",1
"16/06/28","15:20",0.0,25.8,71.8,1004.3,348.7,1.6,3.7,348.1,0.29,20.4,24.3,"15:18:48",1
"16/06/28","15:30",0.0,26.3,69.5,1004.1,358.8,2.1,4.7,354.0,0.38,20.3,24.2,"15:28:00",1
"16/06/28","15:40",0.0,25.8,67.8,1004.5,358.2,1.7,4.2,346.0,0.30,19.4,24.4,"15:35:28",1
"16/06/28","15:50",0.0,25.5,72.0,1004.5,347.2,2.0,5.5,350.4,0.22,20.1,24.4,"15:42:48",1
"16/06/28","16:00",0.0,25.8,71.6,1004.5,347.9,1.6,4.1,341.2,0.24,20.3,24.6,"15:50:48",1
"16/06/28","16:10",0.0,25.1,68.2,1004.5,346.4,1.5,3.4,18.0,0.16,18.9,24.7,"16:08:08",1
"16/06/28","16:20",0.0,25.1,72.8,1004.5,342.9,1.5,2.9,342.3,0.14,19.9,24.5,"16:16:00",1
"16/06/28","16:30",0.0,25.0,71.5,1004.5,316.4,0.7,2.1,344.5,0.11,19.5,24.6,"16:21:36",1
"16/06/28","16:40",0.0,25.2,70.8,1004.8,326.4,0.8,2.5,27.0,0.08,19.6,24.5,"16:34:32",1
"16/06/28","16:50",0.0,24.8,71.7,1004.8,322.5,0.8,2.9,3.8,0.11,19.4,24.4,"16:42:56",1
"16/06/28","17:00",0.0,24.9,70.8,1004.5,311.1,1.0,2.9,348.8,0.08,19.3,24.5,"16:56:48",1
"16/06/28","17:10",0.0,24.6,72.2,1005.0,330.1,1.1,2.4,357.3,0.05,19.3,24.6,"17:00:32",1
"16/06/28","17:20",0.0,24.2,73.9,1005.0,325.2,1.0,2.1,343.7,0.03,19.3,24.5,"17:13:28",1
"16/06/28","17:30",0.0,24.0,75.1,1005.2,284.6,0.5,1.2,263.7,0.04,19.4,24.5,"17:22:32",1
"16/06/28","17:40",0.0,23.9,76.4,1005.5,326.3,0.8,1.6,324.9,0.03,19.5,24.2,"17:32:16",1
"16/06/28","17:50",0.0,23.8,76.7,1005.5,327.9,0.8,1.9,348.5,0.03,19.5,24.2,"17:46:16",1
"16/06/28","18:00",0.2,23.5,75.4,1005.5,335.2,1.5,2.9,348.8,0.03,18.9,24.3,"17:50:02",1
"16/06/28","18:10",0.0,23.6,75.5,1006.0,327.1,1.3,2.9,354.1,0.02,19.1,24.3,"18:01:12",1
"16/06/28","18:20",0.0,23.1,76.2,1006.0,330.6,1.5,3.4,347.2,0.00,18.7,24.2,"18:19:04",1
"16/06/28","18:30",0.0,22.8,77.3,1006.0,328.1,1.8,3.4,347.1,0.00,18.7,24.1,"18:28:56",1
"16/06/28","18:40",0.0,22.4,78.2,1005.7,330.1,2.0,5.4,350.7,0.00,18.5,24.0,"18:30:24",1
"16/06/28","18:50",0.0,22.3,79.2,1006.2,324.2,1.2,3.2,352.6,0.00,18.6,23.9,"18:46:40",1
"16/06/28","19:00",0.0,22.2,79.0,1006.0,299.5,0.8,2.0,341.5,0.00,18.4,23.9,"18:50:24",1
"16/06/28","19:10",0.0,22.1,78.7,1006.4,330.4,0.8,1.7,1.7,0.00,18.3,23.9,"19:07:52",1
"16/06/28","19:20",0.0,22.0,78.4,1006.7,329.8,1.0,2.0,340.0,0.00,18.1,23.7,"19:18:00",1
"16/06/28","19:30",0.0,22.0,79.8,1006.9,341.6,1.0,2.2,336.2,0.00,18.4,23.7,"19:21:12",1
"16/06/28","19:40",0.0,21.9,81.0,1006.9,347.0,1.1,2.1,352.5,0.00,18.5,23.5,"19:32:40",1
"16/06/28","19:50",0.0,21.8,81.0,1006.9,341.5,1.0,1.9,337.2,0.00,18.4,23.6,"19:46:48",1
"16/06/28","20:00",0.0,21.7,81.1,1006.4,322.3,0.3,1.3,340.8,0.00,18.4,23.6,"19:51:52",1
"16/06/28","20:10",0.0,21.6,82.7,1006.7,327.5,1.2,1.9,341.3,0.00,18.6,23.3,"20:04:48",1
"16/06/28","20:20",0.0,21.4,84.1,1006.7,324.1,1.2,1.9,346.9,0.00,18.6,23.2,"20:17:36",1
"16/06/28","20:30",0.0,21.2,84.9,1006.7,330.6,0.6,1.8,332.9,0.00,18.6,23.3,"20:21:12",1
"16/06/28","20:40",0.0,21.1,85.9,1006.9,317.4,0.8,1.7,338.0,0.00,18.7,23.2,"20:38:56",1
"16/06/28","20:50",0.0,21.0,86.5,1006.9,331.2,1.2,2.1,335.8,0.00,18.7,23.2,"20:46:40",1
"16/06/28","21:00",0.0,20.7,86.4,1006.7,310.2,1.1,2.5,344.0,0.00,18.4,23.0,"20:52:08",1
"16/06/28","21:10",0.0,20.8,86.7,1007.4,308.4,1.2,1.7,325.7,0.00,18.5,23.1,"21:01:36",1
"16/06/28","21:20",0.0,20.8,86.0,1007.4,305.1,1.2,1.6,307.2,0.00,18.4,23.0,"21:15:04",1
"16/06/28","21:30",0.0,20.9,85.5,1007.4,314.1,1.3,1.7,317.9,0.00,18.4,23.1,"21:21:28",1
"16/06/28","21:40",0.0,21.0,85.8,1007.6,306.8,1.2,1.6,330.1,0.00,18.6,23.1,"21:31:36",1
"16/06/28","21:50",0.0,20.9,85.7,1008.1,310.4,1.3,1.8,287.9,0.00,18.5,23.0,"21:42:48",1
"16/06/28","22:00",0.0,20.9,85.2,1007.8,305.9,1.1,1.7,318.1,0.00,18.4,23.1,"21:55:20",1
"16/06/28","22:10",0.0,20.9,85.4,1007.6,317.3,1.3,2.0,313.6,0.00,18.4,22.8,"22:01:04",1
"16/06/28","22:20",0.0,20.8,85.8,1008.1,306.6,1.1,2.1,346.0,0.00,18.4,22.8,"22:12:16",1
"16/06/28","22:30",0.0,20.8,86.1,1008.1,314.1,1.2,1.9,319.5,0.00,18.4,23.0,"22:24:00",1
"16/06/28","22:40",0.0,20.8,86.1,1007.8,322.1,1.1,1.9,343.6,0.00,18.4,22.8,"22:39:28",1
"16/06/28","22:50",0.0,20.8,86.3,1007.4,334.4,1.2,1.8,341.5,0.00,18.5,22.8,"22:45:04",1
"16/06/28","23:00",0.0,20.6,86.8,1007.6,315.3,1.2,1.8,332.8,0.00,18.4,22.7,"22:50:16",1
"16/06/28","23:10",0.0,20.6,87.2,1008.3,318.3,1.2,1.7,333.5,0.00,18.4,22.6,"23:06:40",1
"16/06/28","23:20",0.0,20.6,87.4,1008.1,316.4,1.1,1.8,332.7,0.00,18.5,22.7,"23:18:16",1
"16/06/28","23:30",0.0,20.6,87.1,1008.1,309.4,1.0,2.0,348.2,0.00,18.4,22.8,"23:21:52",1
"16/06/28","23:40",0.0,20.6,86.8,1007.8,316.4,1.0,2.4,338.3,0.00,18.4,22.7,"23:39:04",1
"16/06/28","23:50",0.0,20.6,86.5,1007.4,332.9,1.3,2.4,326.2,0.00,18.3,22.8,"23:43:04",1
"16/06/28","24:00",0.0,20.6,86.7,1007.6,334.6,1.5,2.7,336.8,0.00,18.3,22.5,"23:54:48",1
